AKDT,Max TemperatureF,Mean TemperatureF,Min TemperatureF,Max Dew PointF,MeanDew PointF,Min DewpointF,Max Humidity, Mean Humidity, Min Humidity, Max Sea Level PressureIn, Mean Sea Level PressureIn, Min Sea Level PressureIn, Max VisibilityMiles, Mean VisibilityMiles, Min VisibilityMiles, Max Wind SpeedMPH, Mean Wind SpeedMPH, Max Gust SpeedMPH,PrecipitationIn, CloudCover, Events, WindDirDegrees
2013-3-1,33,26,21,27,20,18,86,74,60,29.88,29.81,29.69,10,10,10,17,9,,0.00,2,,298
2013-3-2,39,36,33,37,34,25,100,90,70,29.69,29.38,29.30,10,7,1,16,7,29,0.00,6,,106
2013-3-3,39,34,30,34,33,30,100,91,75,30.00,29.75,29.49,10,10,10,12,3,,0.00,2,,344
2013-3-4,37,36,35,36,34,32,100,92,87,30.07,30.02,29.89,10,10,5,22,13,29,0.00,8,,147
2013-3-5,39,36,33,37,34,30,100,93,75,29.88,29.77,29.71,10,8,2,22,11,29,0.00,6,Rain-Snow,194
2013-3-6,42,38,33,39,34,30,100,89,75,29.84,29.35,28.64,10,8,1,25,9,41,0.00,7,,102
2013-3-7,41,38,35,41,38,36,100,97,93,28.80,28.52,28.41,10,8,2,15,7,22,0.00,8,,128
2013-3-8,37,34,28,36,29,23,100,88,75,29.89,29.32,28.81,10,6,2,29,15,37,0.00,8,,271
2013-3-9,37,32,28,32,25,19,81,73,60,30.36,30.22,29.91,10,10,10,22,13,26,0.00,4,,256
2013-3-10,39,38,35,36,33,25,93,83,56,30.52,30.44,30.35,10,9,4,21,11,22,0.00,5,,308
2013-3-11,33,30,28,27,25,21,86,77,60,30.58,30.56,30.52,10,10,10,21,15,22,0.00,3,,325
2013-3-12,35,32,30,28,22,19,93,65,52,30.32,30.26,30.18,10,10,10,24,16,28,0.00,1,,331
2013-3-13,30,26,21,21,20,19,100,74,64,29.95,29.87,29.75,10,10,10,13,10,,0.00,0,,345
2013-3-14,30,26,21,23,18,12,80,72,60,29.78,29.70,29.65,10,10,9,22,14,25,0.00,3,Snow,330
2013-3-15,30,24,17,30,17,10,100,80,68,29.85,29.81,29.72,10,8,1,14,9,17,0.00,4,Snow,338
2013-3-16,39,32,26,30,28,27,100,83,61,30.32,30.09,29.80,10,10,10,9,2,,0.00,2,,295
2013-3-17,37,32,26,34,29,25,100,86,65,30.36,30.33,30.30,10,10,10,16,3,,0.00,3,,227
2013-3-18,33,30,28,28,26,21,93,82,64,30.35,30.33,30.31,10,10,9,25,11,28,0.00,4,,328
2013-3-19,30,28,26,27,23,21,93,80,69,30.31,30.28,30.24,10,10,10,29,19,34,0.00,3,,332
2013-3-20,35,30,26,21,17,12,80,56,38,30.28,30.26,30.24,10,10,10,21,12,20,0.00,0,,354
2013-3-21,37,32,28,32,30,25,93,81,75,30.25,30.13,30.03,10,10,10,22,8,,0.00,6,,165
2013-3-22,41,37,33,34,31,30,93,80,65,30.02,29.97,29.93,10,10,10,8,3,,0.00,7,,177
2013-3-23,35,32,30,36,34,28,100,96,87,29.93,29.75,29.63,10,7,2,24,9,36,0.00,8,,132
2013-3-24,28,24,21,28,20,16,100,82,80,30.13,30.02,29.77,10,10,10,36,26,44,0.00,6,,340
2013-3-25,26,24,21,18,16,14,80,73,64,30.14,30.05,30.00,10,10,10,20,10,,0.00,6,,347
2013-3-26,33,30,26,32,27,19,100,91,74,30.04,30.00,29.97,10,8,3,15,7,22,0.00,8,,36
2013-3-27,39,36,33,39,36,32,100,97,93,29.96,29.78,29.59,10,6,1,23,9,30,0.00,8,,138
2013-3-28,41,37,33,37,36,34,100,96,76,29.61,29.54,29.52,10,10,6,16,5,22,0.00,7,,170
2013-3-29,41,38,35,37,36,34,100,93,81,29.84,29.66,29.55,10,10,7,14,8,24,0.00,7,,140
2013-3-30,37,34,30,36,32,27,100,88,75,30.24,30.06,29.85,10,10,5,20,6,22,0.00,5,,338
2013-3-31,37,32,28,32,28,27,93,84,65,30.28,30.25,30.20,10,10,5,14,7,18,0.00,3,,347